TimeCST,TemperatureF,Dew PointF,Humidity,Sea Level PressureIn,VisibilityMPH,Wind Direction,Wind SpeedMPH,Gust SpeedMPH,PrecipitationIn,Events,Conditions,WindDirDegrees,DateUTC
12:15 AM,63.7,60.3,89,29.99,10.0,SSE,6.9,-,N/A,,Clear,160,2012-12-04 06:15:00
12:35 AM,63.5,60.4,90,29.99,10.0,SSE,5.8,-,N/A,,Scattered Clouds,150,2012-12-04 06:35:00
12:55 AM,63.7,60.8,90,29.99,10.0,SSE,5.8,-,N/A,,Scattered Clouds,160,2012-12-04 06:55:00
1:15 AM,63.5,60.8,91,29.99,10.0,SSE,4.6,-,N/A,,Scattered Clouds,150,2012-12-04 07:15:00
1:35 AM,63.5,61.0,91,29.99,10.0,SSE,6.9,-,N/A,,Scattered Clouds,160,2012-12-04 07:35:00
1:55 AM,63.5,61.2,92,29.98,10.0,South,8.1,-,N/A,,Scattered Clouds,170,2012-12-04 07:55:00
2:15 AM,63.5,61.2,92,29.98,10.0,South,6.9,-,N/A,,Clear,170,2012-12-04 08:15:00
2:55 AM,64.0,60.8,89,29.98,10.0,South,6.9,-,N/A,,Clear,190,2012-12-04 08:55:00
3:15 AM,65.3,60.3,84,29.98,10.0,South,10.4,-,N/A,,Clear,190,2012-12-04 09:15:00
3:35 AM,65.5,60.3,83,29.98,10.0,South,10.4,-,N/A,,Scattered Clouds,180,2012-12-04 09:35:00
4:15 AM,64.9,60.3,85,29.99,10.0,SSW,5.8,-,N/A,,Mostly Cloudy,210,2012-12-04 10:15:00
4:35 AM,65.3,60.3,84,29.99,10.0,North,-9999.0,-,N/A,,Overcast,0,2012-12-04 10:35:00
4:55 AM,64.9,60.1,84,29.99,10.0,SSW,6.9,-,N/A,,Overcast,200,2012-12-04 10:55:00
5:15 AM,64.9,60.1,84,30.00,10.0,SSW,6.9,-,N/A,,Overcast,200,2012-12-04 11:15:00
5:35 AM,64.9,60.1,84,30.01,10.0,SSW,8.1,-,N/A,,Overcast,210,2012-12-04 11:35:00
5:55 AM,64.6,59.9,85,30.02,10.0,SW,6.9,-,N/A,,Overcast,220,2012-12-04 11:55:00
6:15 AM,64.6,59.5,84,30.03,10.0,SSW,6.9,-,N/A,,Overcast,210,2012-12-04 12:15:00
6:35 AM,64.6,59.5,84,30.03,10.0,SSW,8.1,-,N/A,,Overcast,210,2012-12-04 12:35:00
6:55 AM,64.4,59.4,84,30.04,10.0,SSW,8.1,-,N/A,,Overcast,210,2012-12-04 12:55:00
7:15 AM,64.4,59.4,84,30.06,10.0,North,-9999.0,-,N/A,,Overcast,0,2012-12-04 13:15:00
7:35 AM,64.4,59.4,84,30.06,10.0,North,-9999.0,-,N/A,,Overcast,0,2012-12-04 13:35:00
7:55 AM,63.7,59.0,85,30.07,10.0,WSW,5.8,-,N/A,Thunderstorm,Overcast,240,2012-12-04 13:55:00
8:15 AM,64.2,59.2,84,30.08,10.0,West,4.6,-,N/A,Thunderstorm,Mostly Cloudy,260,2012-12-04 14:15:00
8:35 AM,64.6,58.5,80,30.10,10.0,NNW,13.8,-,N/A,,Overcast,340,2012-12-04 14:35:00
8:55 AM,63.7,55.6,75,30.10,10.0,North,9.2,-,N/A,,Overcast,350,2012-12-04 14:55:00
9:15 AM,63.5,53.8,71,30.12,10.0,North,10.4,18.4,N/A,Thunderstorm,Overcast,350,2012-12-04 15:15:00
9:35 AM,63.7,51.3,64,30.13,10.0,North,11.5,-,N/A,,Overcast,350,2012-12-04 15:35:00
9:55 AM,62.8,50.2,63,30.14,10.0,North,9.2,-,N/A,,Overcast,360,2012-12-04 15:55:00
10:15 AM,64.4,49.8,59,30.13,10.0,North,13.8,17.3,N/A,,Mostly Cloudy,350,2012-12-04 16:15:00
10:35 AM,64.6,49.5,58,30.14,10.0,North,12.7,18.4,N/A,,Clear,350,2012-12-04 16:35:00
10:55 AM,66.2,49.3,54,30.15,10.0,North,10.4,16.1,N/A,,Scattered Clouds,350,2012-12-04 16:55:00
11:15 AM,65.7,48.6,54,30.15,10.0,NNW,11.5,-,N/A,,Mostly Cloudy,340,2012-12-04 17:15:00
11:35 AM,66.7,48.9,53,30.15,10.0,North,15.0,19.6,N/A,,Mostly Cloudy,350,2012-12-04 17:35:00
11:55 AM,67.8,47.5,48,30.15,10.0,NNW,15.0,21.9,N/A,,Scattered Clouds,340,2012-12-04 17:55:00
12:15 PM,68.5,46.2,45,30.14,10.0,North,15.0,20.7,N/A,,Clear,350,2012-12-04 18:15:00
12:35 PM,69.6,44.6,41,30.14,10.0,North,16.1,24.2,N/A,,Clear,350,2012-12-04 18:35:00
12:55 PM,69.4,42.6,38,30.14,10.0,North,18.4,24.2,N/A,,Clear,350,2012-12-04 18:55:00
1:15 PM,69.6,41.7,36,30.13,10.0,NNE,9.2,20.7,N/A,,Clear,20,2012-12-04 19:15:00
1:35 PM,70.0,40.8,35,30.12,10.0,North,13.8,21.9,N/A,,Clear,350,2012-12-04 19:35:00
1:55 PM,69.8,39.6,33,30.12,10.0,North,17.3,21.9,N/A,,Clear,360,2012-12-04 19:55:00
2:15 PM,69.8,39.2,33,30.12,10.0,North,13.8,19.6,N/A,,Clear,360,2012-12-04 20:15:00
2:35 PM,70.3,39.2,32,30.13,10.0,North,9.2,23.0,N/A,,Clear,10,2012-12-04 20:35:00
2:55 PM,69.8,38.3,32,30.13,10.0,North,16.1,24.2,N/A,,Clear,360,2012-12-04 20:55:00
3:15 PM,69.8,37.4,31,30.14,10.0,NNE,9.2,-,N/A,,Clear,30,2012-12-04 21:15:00
3:35 PM,69.4,35.8,29,30.15,10.0,North,15.0,-,N/A,,Clear,360,2012-12-04 21:35:00
3:55 PM,68.9,34.7,28,30.15,10.0,North,15.0,-,N/A,,Clear,350,2012-12-04 21:55:00
4:15 PM,68.0,32.9,27,30.15,10.0,North,15.0,19.6,N/A,,Clear,350,2012-12-04 22:15:00
4:35 PM,67.1,33.3,29,30.17,10.0,North,11.5,-,N/A,,Clear,360,2012-12-04 22:35:00
4:55 PM,66.2,30.7,27,30.17,10.0,North,10.4,-,N/A,,Clear,10,2012-12-04 22:55:00
5:15 PM,63.1,29.3,28,30.18,10.0,North,11.5,17.3,N/A,,Clear,350,2012-12-04 23:15:00
5:35 PM,61.7,29.3,29,30.18,10.0,North,12.7,18.4,N/A,,Clear,350,2012-12-04 23:35:00
5:55 PM,60.1,29.3,31,30.18,10.0,North,9.2,18.4,N/A,,Clear,350,2012-12-04 23:55:00
6:15 PM,59.2,29.3,32,30.19,10.0,NNW,11.5,18.4,N/A,,Clear,340,2012-12-05 00:15:00
6:35 PM,58.1,28.8,33,30.20,10.0,North,11.5,16.1,N/A,,Clear,350,2012-12-05 00:35:00
6:55 PM,57.2,28.2,33,30.21,10.0,North,12.7,16.1,N/A,,Clear,350,2012-12-05 00:55:00
7:15 PM,56.5,28.2,34,30.21,10.0,North,10.4,16.1,N/A,,Clear,350,2012-12-05 01:15:00
7:35 PM,55.6,28.2,35,30.22,10.0,North,6.9,-,N/A,,Clear,360,2012-12-05 01:35:00
7:55 PM,54.3,28.4,37,30.22,10.0,NNE,3.5,-,N/A,,Clear,20,2012-12-05 01:55:00
8:15 PM,53.6,28.4,38,30.23,10.0,North,4.6,-,N/A,,Clear,10,2012-12-05 02:15:00
8:35 PM,52.7,28.4,39,30.24,10.0,North,5.8,-,N/A,,Clear,360,2012-12-05 02:35:00
8:55 PM,52.3,28.9,41,30.24,10.0,North,6.9,-,N/A,,Clear,10,2012-12-05 02:55:00
9:15 PM,52.0,29.3,42,30.24,10.0,North,5.8,-,N/A,,Clear,360,2012-12-05 03:15:00
9:35 PM,50.5,29.1,44,30.24,10.0,North,8.1,-,N/A,,Clear,350,2012-12-05 03:35:00
9:55 PM,49.3,30.0,48,30.25,10.0,NNW,6.9,-,N/A,,Clear,340,2012-12-05 03:55:00
10:15 PM,50.2,30.2,46,30.26,10.0,North,6.9,-,N/A,,Clear,360,2012-12-05 04:15:00
10:35 PM,50.2,30.4,47,30.26,10.0,North,4.6,-,N/A,,Clear,360,2012-12-05 04:35:00
10:55 PM,50.0,30.6,47,30.27,10.0,North,5.8,-,N/A,,Clear,360,2012-12-05 04:55:00
11:15 PM,49.6,30.7,48,30.27,10.0,North,6.9,-,N/A,,Clear,10,2012-12-05 05:15:00
11:35 PM,48.9,30.9,50,30.26,10.0,North,4.6,-,N/A,,Clear,10,2012-12-05 05:35:00
11:55 PM,48.9,30.9,50,30.26,10.0,NNE,4.6,-,N/A,,Clear,20,2012-12-05 05:55:00